ATLAS CENTAUR 2 DEB, 700

Orbit data source: Space-Track

ATLAS CENTAUR 2 DEB, 700 is space debris in LEO originally from a launch on Wed, 27 Nov 1963 UTC launched from the Air Force Eastern Test Range (AFETR). Debris objects in space refer to the collection of defunct objects orbiting the Earth. Examples of debris include non-operational satellites, rocket bodies, and fragments generated from explosions, collisions, or faulty payload assembly.

Loading next visibility...
Identifier
700, 1963-047F
Orbit
LEO
Last TLE update
22 hours ago
Origin
Manufacturer
GD/Convair
Mission
Spacecraft
Bus & Motor
CENTAUR PART, Unknown motor
Mass
Unknown
Launch date (UTC)
1963-11-27 (61 years ago)
Launch vehicle
Unknown
Launch site
Air Force Eastern Test Range (AFETR)
Object type
Payload
Rocket body
Debris
Shape & HBR
Unknown
Radar Cross Section
0.510 m², Medium (>0.1 m² and < 1m²)

Expand to show TLE details & history

TLE from 22 hours ago
0 ATLAS CENTAUR 2 DEB
1 00700U 63047F   25114.87864496  .00000775  00000-0  27871-3 0  9999
2 00700  30.4796 307.0269 0718099  58.5373 308.3394 13.39895782994041
Epoch: 2025-04-24T21:05Z
Definitive object data (Epoch: 2025-04-24T21:05:14.924Z)
Latitude
-0.00004°
Longitude
137.5709°
Altitude
800.13 km
Speed
7.607 km/s
True Right ascension
20h 28m 06s
True Declination
0° 00' 00"
Sunlit
Object was in daylight at TLE epoch
Visualization TLE readout
Latitude
5.36955°
Longitude
-56.16327°
Altitude
1,197.024 km
Speed
7.214 km/s
Apparent Right ascension
10h 01m 35s
Apparent Declination
-23° 15' 39"
Sunlit
Object is in daylight
Visualization observer readout
Local Sidereal Time
02:34:35
Azimuth
95.652° ESE
Elevation
-30.965°
Doppler factor
1
Orbital elements
Apogee altitude
1,651.274 km
Perigee altitude
575.353 km
Semi-major axis
7,491.45 km
Eccentricity
0.0718099
Inclination
30.4796°
RAAN
307.0269°
Arg. of periapsis
58.5373°
True anomaly
301.52176°
Mean anomaly
308.3394°
Eccentric anomaly
304.96775°
Mean motion
3.3473 °/min
BSTAR
0.00027871
Orbital period
107.55 mins
Loading maneuver chart data...
Loading SW <> Apogee altitude chart data...

ATLAS CENTAUR 2 DEB Visibility forecast

Observer location: undefined°, undefined°

Span
Click to sort rows by Start time (UTC) header in descending order
Start Az.
Max El. time (UTC)
Max El. Az.
Max El.
End time (UTC)
End Az.
7 mins2025-04-25 20:46:50.108Z237.236° WSW2025-04-25 20:49:50.108Z196.263° SSW18.962°2025-04-25 20:53:50.108Z146.946° SSE
5 mins2025-04-26 18:08:50.108Z214.02° SW2025-04-26 18:10:50.108Z175.43° S21.379°2025-04-26 18:13:50.108Z127.1° SE
|